Middlesboro, KY

8:10 PM EDT on August 25, 2016 (GMT -0400)
Middlesboro

Weather History for K1A6 - March, 2013

Change the Weather History Date:

Friday, March 15, 2013

  Actual Average (KLOZ) Record (KLOZ)
Temperature  
Mean Temperature 46 °F 47 °F  
Max Temperature 65 °F 58 °F 84 °F (1977)
Min Temperature 27 °F 36 °F 1 °F (1993)
Degree Days  
Heating Degree Days 20 18  
Month to date heating degree days 299  
Since 1 July heating degree days 3575  
Cooling Degree Days 0 0  
Month to date cooling degree days 0  
Year to date cooling degree days 0  
Moisture  
Dew Point 33 °F    
Average Humidity 62    
Maximum Humidity 97    
Minimum Humidity 34    
Precipitation  
Precipitation 0.00 in 0.13 in 0.99 in (1982)
Month to date precipitation 1.96  
Year to date precipitation 9.21  
Sea Level Pressure  
Sea Level Pressure 30.03 in    
Wind  
Wind Speed 3 mph (South)    
Max Wind Speed 13 mph    
Max Gust Speed 20 mph    
Visibility 10 miles    
Events Rain    
T = Trace of Precipitation, MM = Missing Value Source: NWS Daily Summary

Daily Weather History Graph

Daily Weather History Graph

Search for Another Location

Airport or City:

Trip Planner

Search our weather history database for the weather conditions in past years. The results will help you decide how hot, cold, wet, or windy it might be!

Date:

Astronomy

Mar. 15, 2013 Rise Set
Actual Time 6:45 AM CDT 6:42 PM CDT
Civil Twilight 6:19 AM CDT 7:08 PM CDT
Nautical Twilight 5:49 AM CDT 7:38 PM CDT
Astronomical Twilight 5:19 AM CDT 8:08 PM CDT
Moon 8:42 AM CDT (3/15) 10:47 PM CDT (3/15)
Length of Visible Light 12h 48m
Length of Day
11h 57m
Waxing Crescent, 15% of the Moon is Illuminated
Mar 15
Waxing Crescent
Mar 19
First Quarter
Mar 27
Full
Apr 2
Last Quarter
Apr 10
New

Hourly Weather History & Observations

Time (CDT) Temp. Windchill Dew Point Humidity Pressure Visibility Wind Dir Wind Speed Gust Speed Precip Events Conditions
12:15 AM 40.1 °F 38.0 °F 21.6 °F 48% 30.23 in 10.0 mi West 3.5 mph - N/A   Overcast
12:35 AM 39.0 °F - 21.0 °F 49% 30.23 in 10.0 mi Calm Calm - N/A   Mostly Cloudy
12:55 AM 38.3 °F - 22.3 °F 53% 30.22 in 10.0 mi Calm Calm - N/A   Scattered Clouds
1:15 AM 36.5 °F - 22.8 °F 58% 30.21 in 10.0 mi Calm Calm - N/A   Scattered Clouds
1:35 AM 35.6 °F - 24.1 °F 63% 30.21 in 10.0 mi Calm Calm - N/A   Scattered Clouds
2:15 AM 33.3 °F - 25.7 °F 74% 30.20 in 10.0 mi Calm Calm - N/A   Mostly Cloudy
2:35 AM 32.7 °F - 26.4 °F 78% 30.20 in 10.0 mi Calm Calm - N/A   Scattered Clouds
2:55 AM 32.4 °F - 25.5 °F 76% 30.19 in 10.0 mi Calm Calm - N/A   Scattered Clouds
3:15 AM 31.6 °F - 25.7 °F 79% 30.18 in 10.0 mi Calm Calm - N/A   Mostly Cloudy
3:35 AM 31.6 °F - 25.2 °F 77% 30.17 in 10.0 mi Calm Calm - N/A   Scattered Clouds
3:55 AM 30.6 °F - 25.3 °F 81% 30.17 in 10.0 mi Calm Calm - N/A   Clear
4:15 AM 29.8 °F - 25.2 °F 83% 30.16 in 10.0 mi Calm Calm - N/A   Clear
4:35 AM 29.8 °F - 24.8 °F 81% 30.16 in 10.0 mi Calm Calm - N/A   Clear
4:55 AM 29.3 °F - 24.8 °F 83% 30.16 in 10.0 mi Calm Calm - N/A   Clear
5:15 AM 29.7 °F - 25.3 °F 84% 30.16 in 10.0 mi Calm Calm - N/A   Clear
5:35 AM 28.6 °F - 24.6 °F 85% 30.16 in 10.0 mi Calm Calm - N/A   Clear
5:55 AM 29.1 °F - 24.4 °F 83% 30.17 in 10.0 mi Calm Calm - N/A   Clear
6:15 AM 28.2 °F - 24.6 °F 86% 30.16 in 10.0 mi Calm Calm - N/A   Clear
6:35 AM 27.5 °F - 24.1 °F 87% 30.16 in 10.0 mi Calm Calm - N/A   Clear
7:15 AM 28.2 °F - 25.0 °F 88% 30.15 in 7.0 mi Calm Calm - N/A   Clear
7:35 AM 29.1 °F - 25.3 °F 86% 30.15 in 10.0 mi Calm Calm - N/A   Clear
7:55 AM 30.6 °F - 27.0 °F 86% 30.14 in 10.0 mi Calm Calm - N/A   Clear
8:15 AM 32.9 °F - 28.6 °F 84% 30.13 in 10.0 mi Calm Calm - N/A   Clear
8:35 AM 37.2 °F - 30.2 °F 76% 30.12 in 10.0 mi Calm Calm - N/A   Clear
8:55 AM 41.7 °F 39.8 °F 31.1 °F 66% 30.12 in 10.0 mi South 3.5 mph - N/A   Clear
9:15 AM 43.9 °F 37.9 °F 30.4 °F 59% 30.11 in 10.0 mi South 11.5 mph - N/A   Clear
9:35 AM 45.1 °F 40.3 °F 30.2 °F 56% 30.10 in 10.0 mi South 9.2 mph - N/A   Clear
10:55 AM 49.3 °F - 32.0 °F 51% 30.07 in 10.0 mi South 12.7 mph 16.1 mph N/A   Clear
11:15 AM 50.7 °F - 32.4 °F 49% 30.07 in 10.0 mi South 10.4 mph 16.1 mph N/A   Clear
11:35 AM 52.2 °F - 32.5 °F 47% 30.06 in 10.0 mi South 11.5 mph - N/A   Clear
11:55 AM 53.6 °F - 33.1 °F 46% 30.05 in 10.0 mi SSE 10.4 mph - N/A   Clear
12:15 PM 53.8 °F - 32.7 °F 45% 30.04 in 10.0 mi South 10.4 mph 16.1 mph N/A   Clear
12:35 PM 55.0 °F - 32.5 °F 43% 30.03 in 10.0 mi South 10.4 mph - N/A   Clear
12:55 PM 57.4 °F - 33.6 °F 41% 30.02 in 10.0 mi South 10.4 mph - N/A   Clear
1:15 PM 58.1 °F - 33.6 °F 40% 30.01 in 10.0 mi South 11.5 mph - N/A   Clear
1:35 PM 59.0 °F - 33.1 °F 38% 30.00 in 10.0 mi South 10.4 mph - N/A   Clear
1:55 PM 61.2 °F - 34.2 °F 36% 29.98 in 10.0 mi South 6.9 mph - N/A   Clear
2:15 PM 61.0 °F - 34.3 °F 37% 29.96 in 10.0 mi SSE 8.1 mph 18.4 mph N/A   Clear
2:35 PM 62.2 °F - 35.1 °F 36% 29.95 in 10.0 mi South 11.5 mph 16.1 mph N/A   Clear
2:55 PM 63.7 °F - 35.2 °F 35% 29.94 in 10.0 mi South 10.4 mph 19.6 mph N/A   Clear
3:15 PM 64.9 °F - 35.8 °F 34% 29.94 in 10.0 mi South 9.2 mph 16.1 mph N/A   Clear
3:35 PM 64.2 °F - 35.6 °F 35% 29.93 in 10.0 mi South 10.4 mph 16.1 mph N/A   Scattered Clouds
3:55 PM 63.7 °F - 36.0 °F 36% 29.93 in 10.0 mi South 6.9 mph - N/A   Mostly Cloudy
4:15 PM 64.0 °F - 36.3 °F 36% 29.92 in 10.0 mi South 10.4 mph - N/A   Overcast
4:35 PM 64.4 °F - 36.7 °F 36% 29.92 in 10.0 mi South 6.9 mph - N/A   Scattered Clouds
4:55 PM 64.4 °F - 36.5 °F 36% 29.92 in 10.0 mi South 4.6 mph - N/A   Scattered Clouds
5:15 PM 64.4 °F - 37.0 °F 36% 29.92 in 10.0 mi South 4.6 mph - N/A   Clear
5:35 PM 64.0 °F - 37.0 °F 37% 29.92 in 10.0 mi South 3.5 mph - N/A   Clear
5:55 PM 63.5 °F - 37.4 °F 38% 29.91 in 10.0 mi SSW 5.8 mph - N/A   Clear
6:15 PM 63.0 °F - 37.6 °F 39% 29.92 in 10.0 mi SW 3.5 mph - N/A   Clear
6:35 PM 60.6 °F - 38.1 °F 43% 29.92 in 10.0 mi Calm Calm - N/A   Clear
6:55 PM 56.7 °F - 39.0 °F 52% 29.92 in 10.0 mi Calm Calm - N/A   Clear
7:15 PM 54.5 °F - 39.7 °F 57% 29.92 in 10.0 mi Calm Calm - N/A   Clear
7:35 PM 52.2 °F - 40.1 °F 64% 29.92 in 10.0 mi Calm Calm - N/A   Clear
7:55 PM 52.0 °F - 39.6 °F 63% 29.92 in 10.0 mi West 4.6 mph - N/A   Scattered Clouds
8:15 PM 48.9 °F - 38.7 °F 68% 29.92 in 10.0 mi Calm Calm - N/A   Overcast
8:35 PM 49.1 °F - 40.1 °F 71% 29.92 in 10.0 mi Calm Calm - N/A   Overcast
8:55 PM 49.1 °F - 39.9 °F 71% 29.92 in 10.0 mi Calm Calm - N/A   Mostly Cloudy
9:15 PM 48.4 °F - 40.1 °F 73% 29.91 in 10.0 mi Calm Calm - N/A   Scattered Clouds
9:35 PM 47.5 °F - 40.1 °F 76% 29.91 in 10.0 mi Calm Calm - N/A   Scattered Clouds
9:55 PM 47.3 °F - 41.2 °F 79% 29.90 in 10.0 mi Calm Calm - N/A   Mostly Cloudy
10:15 PM 48.0 °F - 41.7 °F 79% 29.90 in 10.0 mi South 4.6 mph - N/A   Overcast
10:35 PM 48.2 °F - 43.5 °F 84% 29.90 in 7.0 mi Calm Calm - N/A Rain Light Rain
10:55 PM 47.3 °F - 45.0 °F 92% 29.89 in 10.0 mi Calm Calm - N/A   Overcast
11:15 PM 47.1 °F - 44.6 °F 91% 29.88 in 10.0 mi Calm Calm - N/A   Scattered Clouds
11:35 PM 45.5 °F - 44.1 °F 95% 29.88 in 10.0 mi Calm Calm - N/A   Clear
11:55 PM 45.1 °F - 44.2 °F 97% 29.88 in 7.0 mi Calm Calm - N/A   Mostly Cloudy